Location: Unspecified
(43.8044°N, 11.0278°E)
Time: 10:42:26
(UTC+01:00)

Resurs 1-4 Rocket - Visible Passes

Search period start: 01 November 2014 00:00
Search period end: 11 November 2014 00:00
Orbit: 801 x 814 km, 98.4° (Epoch: 30 October)

Date Brightness Start Highest point End Pass type
(mag) Time Alt. Az. Time Alt. Az. Time Alt. Az.
01 Nov 2.6 04:01:07 10° NNE 04:06:22 58° E 04:07:15 51° SE visible
01 Nov 3.3 05:41:56 10° NNW 05:45:46 21° WNW 05:48:20 15° W visible
02 Nov 3.4 03:36:59 10° NNE 03:41:49 35° E 03:42:17 35° ESE visible
02 Nov 2.8 05:16:57 10° N 05:21:36 32° WNW 05:23:22 26° W visible
03 Nov 4.2 03:13:09 10° NE 03:17:12 22° E 03:17:20 22° E visible
03 Nov 2.2 04:52:13 10° N 04:57:20 51° WNW 04:58:24 44° WSW visible
04 Nov 4.8 02:50:06 10° ENE 02:52:22 13° E 02:52:22 13° E visible
04 Nov 1.9 04:27:40 10° NNE 04:32:59 82° WNW 04:33:26 74° SW visible
04 Nov 3.8 06:09:50 10° NNW 06:12:00 13° WNW 06:14:09 10° W visible
05 Nov 2.5 04:03:17 10° NNE 04:08:28 61° E 04:08:28 61° E visible
05 Nov 3.4 05:44:13 10° NNW 05:47:55 20° WNW 05:49:33 17° W visible
06 Nov 3.4 03:39:07 10° NNE 03:43:31 36° E 03:43:31 36° E visible
06 Nov 2.8 05:19:11 10° N 05:23:45 30° WNW 05:24:35 29° W visible
07 Nov 4.2 03:15:15 10° NE 03:18:33 22° ENE 03:18:33 22° ENE visible
07 Nov 2.2 04:54:26 10° N 04:59:30 48° WNW 04:59:37 48° WNW visible
08 Nov 4.9 02:52:03 10° ENE 02:53:35 13° ENE 02:53:35 13° ENE visible
08 Nov 2.0 04:29:51 10° N 04:34:40 71° NNW 04:34:40 71° NNW visible
08 Nov 3.8 06:12:15 10° NW 06:14:07 12° NW 06:15:44 10° WNW visible
09 Nov 2.7 04:05:27 10° NNE 04:09:42 53° NE 04:09:42 53° NE visible
09 Nov 3.4 05:46:29 10° NNW 05:50:03 19° WNW 05:50:47 18° WNW visible
10 Nov 3.6 03:41:15 10° NNE 03:44:45 33° ENE 03:44:45 33° ENE visible
10 Nov 2.9 05:21:25 10° N 05:25:49 29° WNW 05:25:49 29° WNW visible
